N2DJ Weather Reports


Display with metric or nautical units.
time (UTC)temp
F
wind
direction
speed
MPH
gust
MPH
rain 1hr
in
rain 24hr
in
rain mn
in
humidity
%
barometer
mb
20260503211540 52 283 5.0 13.0 0.00 0.00 0.00 65 1010.3
20260503210039 51 219 5.0 18.0 0.00 0.00 0.00 65 1010.4
20260503204539 51 221 7.0 18.0 0.00 0.00 0.00 64 1010.6
20260503203052 52 261 6.0 16.0 0.00 0.00 0.00 62 1010.6
20260503201536 53 281 3.0 13.0 0.00 0.00 0.00 62 1010.8
20260503200034 53 228 6.0 14.0 0.00 0.00 0.00 61 1010.9
20260503194532 53 239 4.0 17.0 0.00 0.00 0.00 59 1011.1
20260503193031 53 233 8.0 18.0 0.00 0.00 0.00 58 1011.3
20260503191534 52 248 8.0 15.0 0.00 0.00 0.00 57 1011.5
20260503190027 53 180 7.0 16.0 0.00 0.00 0.00 56 1011.8
20260503184626 54 202 6.0 20.0 0.00 0.00 0.00 55 1011.8
20260503183025 54 303 5.0 21.0 0.00 0.00 0.00 52 1012.1
20260503181521 53 255 7.0 17.0 0.00 0.00 0.00 51 1012.3
20260503180020 52 228 7.0 17.0 0.00 0.00 0.00 53 1012.6
20260503174518 52 254 8.0 20.0 0.00 0.00 0.00 54 1012.7
20260503173014 52 254 5.0 15.0 0.00 0.00 0.00 55 1013.2
20260503171514 51 217 8.0 17.0 0.00 0.00 0.00 54 1013.4
20260503081553 29 252 0.0 0.0 0.00 0.00 0.00 93 1015.5
20260503071604 30 252 0.0 0.0 0.00 0.00 0.00 92 1015.3
20260503054548 33 252 0.0 0.0 0.00 0.00 0.00 89 1015.6
20260503053034 34 252 0.0 0.0 0.00 0.00 0.00 89 1015.6
20260503051529 34 252 0.0 0.0 0.00 0.00 0.00 88 1015.7
20260503050036 35 252 0.0 0.0 0.00 0.00 0.00 88 1015.9
20260503044524 35 252 0.0 0.0 0.00 0.00 0.00 87 1015.9
20260503043021 36 252 0.0 0.0 0.00 0.00 0.00 85 1016.0
20260503041527 36 252 0.0 0.0 0.00 0.00 0.00 84 1016.2
20260503040015 37 252 0.0 0.0 0.00 0.00 0.00 82 1016.2
20260503034515 38 252 0.0 0.0 0.00 0.00 0.00 80 1016.2
20260503033014 39 252 0.0 0.0 0.00 0.00 0.00 79 1016.2
20260503031514 39 252 0.0 0.0 0.00 0.00 0.00 79 1016.2
20260503030015 39 252 0.0 0.0 0.00 0.00 0.00 79 1016.3
20260503024513 40 252 0.0 0.0 0.00 0.00 0.00 79 1016.3
20260503023012 40 252 0.0 0.0 0.00 0.00 0.00 78 1016.5
20260503021519 40 253 0.0 0.0 0.00 0.00 0.00 76 1016.6
20260503020015 40 253 0.0 2.0 0.00 0.00 0.00 76 1016.5
20260503014511 41 252 0.0 5.0 0.00 0.00 0.00 76 1016.6
20260503013011 41 272 1.0 4.0 0.00 0.00 0.00 76 1016.6
20260503011511 41 219 4.0 7.0 0.00 0.00 0.00 75 1016.6
20260503010010 41 259 3.0 7.0 0.00 0.00 0.00 75 1016.5
20260503004511 41 244 3.0 5.0 0.00 0.00 0.00 74 1016.4
20260503003009 41 237 0.0 4.0 0.00 0.00 0.00 74 1016.3
20260503001512 42 257 1.0 4.0 0.00 0.00 0.00 73 1016.2
20260503000008 42 233 1.0 5.0 0.00 0.00 0.00 72 1016.1
20260502234507 42 240 1.0 8.0 0.00 0.00 0.00 71 1016.1
20260502233007 42 270 3.0 7.0 0.00 0.00 0.00 69 1016.2
20260502231507 43 252 0.0 4.0 0.00 0.00 0.00 70 1016.1
20260502230016 43 238 2.0 7.0 0.00 0.00 0.00 68 1016.0
20260502224507 43 240 1.0 4.0 0.00 0.00 0.00 69 1015.9
20260502223006 43 286 1.0 6.0 0.00 0.00 0.00 68 1015.8
20260502221504 43 305 2.0 8.0 0.00 0.00 0.00 67 1015.8
20260502220004 43 263 2.0 5.0 0.00 0.00 0.00 71 1016.0
20260502214503 43 270 4.0 9.0 0.00 0.00 0.00 71 1016.1
20260502213003 43 269 3.0 9.0 0.00 0.00 0.00 70 1015.9